| time (UTC) | temp F | wind direction | speed MPH | gust MPH | rain 1hr in | rain 24hr in | rain mn in | humidity % | barometer mb |
| 20260506001528 | 56 | 154 | 4.0 | 10.0 | 0.00 | 0.40 | 0.00 | 73 | 1019.8 |
| 20260506000538 | 55 | 152 | 4.0 | 14.0 | 0.00 | 0.40 | 0.00 | 74 | 1019.7 |
| 20260505235610 | 55 | 157 | 2.0 | 9.0 | 0.00 | 0.40 | 0.00 | 76 | 1019.7 |
| 20260505234600 | 55 | 151 | 4.0 | 13.0 | 0.00 | 0.40 | 0.00 | 77 | 1019.8 |
| 20260505233549 | 55 | 136 | 4.0 | 11.0 | 0.00 | 0.40 | 0.00 | 77 | 1019.8 |
| 20260505232559 | 56 | 150 | 5.0 | 13.0 | 0.00 | 0.40 | 0.00 | 76 | 1019.8 |
| 20260505231529 | 56 | 152 | 4.0 | 11.0 | 0.00 | 0.40 | 0.00 | 74 | 1019.8 |
| 20260505230519 | 56 | 148 | 4.0 | 13.0 | 0.00 | 0.40 | 0.00 | 73 | 1019.7 |
| 20260505225610 | 56 | 161 | 4.0 | 11.0 | 0.00 | 0.40 | 0.00 | 74 | 1019.8 |
| 20260505224620 | 56 | 144 | 4.0 | 9.0 | 0.00 | 0.40 | 0.00 | 74 | 1020.0 |
| 20260505223550 | 56 | 137 | 5.0 | 10.0 | 0.00 | 0.40 | 0.00 | 75 | 1020.0 |
| 20260505222540 | 56 | 148 | 5.0 | 16.0 | 0.00 | 0.40 | 0.00 | 75 | 1020.0 |
| 20260505221530 | 56 | 143 | 3.0 | 11.0 | 0.00 | 0.40 | 0.00 | 74 | 1020.4 |
| 20260505220521 | 56 | 157 | 1.0 | 7.0 | 0.00 | 0.40 | 0.00 | 74 | 1020.5 |
| 20260505215611 | 56 | 137 | 6.0 | 15.0 | 0.00 | 0.40 | 0.40 | 74 | 1020.4 |
| 20260505214601 | 56 | 152 | 5.0 | 14.0 | 0.00 | 0.40 | 0.40 | 75 | 1020.4 |
| 20260505213551 | 56 | 146 | 4.0 | 8.0 | 0.00 | 0.40 | 0.40 | 77 | 1020.5 |
| 20260505212601 | 55 | 160 | 2.0 | 6.0 | 0.00 | 0.40 | 0.40 | 78 | 1020.6 |
| 20260505211531 | 55 | 128 | 1.0 | 7.0 | 0.00 | 0.40 | 0.40 | 77 | 1020.7 |
| 20260505210522 | 55 | 146 | 3.0 | 8.0 | 0.00 | 0.40 | 0.40 | 77 | 1021.0 |
| 20260505205612 | 55 | 158 | 1.0 | 6.0 | 0.00 | 0.40 | 0.40 | 77 | 1021.1 |
| 20260505204602 | 55 | 127 | 2.0 | 6.0 | 0.00 | 0.40 | 0.40 | 78 | 1020.8 |
| 20260505203552 | 55 | 158 | 1.0 | 8.0 | 0.00 | 0.40 | 0.40 | 78 | 1020.7 |
| 20260505202544 | 55 | 170 | 2.0 | 8.0 | 0.00 | 0.40 | 0.40 | 78 | 1020.8 |
| 20260505201532 | 55 | 131 | 2.0 | 8.0 | 0.00 | 0.40 | 0.40 | 78 | 1020.8 |
| 20260505200522 | 56 | 160 | 1.0 | 2.0 | 0.00 | 0.40 | 0.40 | 78 | 1021.0 |
| 20260505195614 | 56 | 139 | 0.0 | 3.0 | 0.00 | 0.40 | 0.40 | 78 | 1020.7 |
| 20260505194604 | 57 | 147 | 1.0 | 2.0 | 0.00 | 0.40 | 0.40 | 78 | 1020.8 |
| 20260505193554 | 57 | 0.0 | 0.0 | 0.00 | 0.40 | 0.40 | 78 | 1020.6 | |
| 20260505192544 | 57 | 190 | 0.0 | 2.0 | 0.00 | 0.40 | 0.40 | 77 | 1020.4 |
| 20260505191534 | 57 | 130 | 1.0 | 6.0 | 0.00 | 0.40 | 0.40 | 77 | 1020.4 |
| 20260505190524 | 56 | 152 | 1.0 | 4.0 | 0.00 | 0.40 | 0.40 | 77 | 1020.4 |
| 20260505185614 | 56 | 142 | 4.0 | 8.0 | 0.00 | 0.40 | 0.40 | 77 | 1020.3 |
| 20260505184645 | 57 | 155 | 0.0 | 3.0 | 0.00 | 0.40 | 0.40 | 76 | 1020.3 |
| 20260505183554 | 57 | 127 | 0.0 | 7.0 | 0.00 | 0.40 | 0.40 | 76 | 1020.5 |
| 20260505182544 | 57 | 159 | 1.0 | 4.0 | 0.00 | 0.40 | 0.40 | 76 | 1020.1 |
| 20260505181534 | 57 | 137 | 2.0 | 7.0 | 0.00 | 0.40 | 0.40 | 75 | 1020.1 |
| 20260505180524 | 58 | 146 | 1.0 | 4.0 | 0.00 | 0.40 | 0.40 | 75 | 1020.0 |
| 20260505175616 | 58 | 144 | 1.0 | 9.0 | 0.00 | 0.40 | 0.40 | 74 | 1020.0 |
| 20260505174605 | 59 | 161 | 1.0 | 7.0 | 0.00 | 0.40 | 0.40 | 74 | 1020.1 |
| 20260505173555 | 59 | 151 | 1.0 | 4.0 | 0.00 | 0.40 | 0.40 | 74 | 1020.2 |
| 20260505172545 | 59 | 149 | 0.0 | 2.0 | 0.00 | 0.40 | 0.40 | 74 | 1020.4 |
| 20260505171535 | 59 | 159 | 0.0 | 2.0 | 0.00 | 0.40 | 0.40 | 74 | 1020.4 |
| 20260505170547 | 60 | 140 | 0.0 | 1.0 | 0.00 | 0.40 | 0.40 | 74 | 1020.4 |
| 20260505165515 | 60 | 128 | 0.0 | 2.0 | 0.00 | 0.40 | 0.40 | 74 | 1020.5 |
| 20260505164607 | 60 | 145 | 0.0 | 3.0 | 0.00 | 0.40 | 0.40 | 72 | 1020.5 |
| 20260505163556 | 61 | 63 | 0.0 | 4.0 | 0.00 | 0.40 | 0.40 | 72 | 1020.4 |
| 20260505162546 | 61 | 172 | 0.0 | 3.0 | 0.00 | 0.40 | 0.40 | 71 | 1020.2 |
| 20260505161536 | 61 | 132 | 1.0 | 3.0 | 0.00 | 0.40 | 0.40 | 71 | 1020.3 |
| 20260505160528 | 61 | 133 | 2.0 | 10.0 | 0.00 | 0.40 | 0.40 | 72 | 1020.4 |
| 20260505152547 | 61 | 142 | 2.0 | 7.0 | 0.00 | 0.40 | 0.40 | 71 | 1020.5 |
| 20260505151537 | 60 | 151 | 5.0 | 15.0 | 0.00 | 0.40 | 0.40 | 72 | 1020.5 |
| 20260505150527 | 61 | 158 | 4.0 | 14.0 | 0.00 | 0.40 | 0.40 | 72 | 1020.5 |
| 20260505140529 | 59 | 151 | 8.0 | 15.0 | 0.00 | 0.40 | 0.40 | 75 | 1020.8 |
| 20260505124610 | 59 | 160 | 9.0 | 17.0 | 0.00 | 0.40 | 0.40 | 74 | 1021.5 |
| 20260505123600 | 60 | 135 | 4.0 | 16.0 | 0.00 | 0.40 | 0.40 | 74 | 1021.5 |
| 20260505122610 | 60 | 156 | 9.0 | 21.0 | 0.00 | 0.40 | 0.40 | 72 | 1021.4 |
| 20260505121540 | 60 | 130 | 8.0 | 21.0 | 0.00 | 0.40 | 0.40 | 71 | 1021.5 |
| 20260505120530 | 60 | 158 | 7.0 | 17.0 | 0.00 | 0.40 | 0.40 | 74 | 1021.4 |
| 20260505115520 | 59 | 146 | 9.0 | 19.0 | 0.00 | 0.40 | 0.40 | 73 | 1021.6 |
| 20260505114611 | 58 | 148 | 7.0 | 22.0 | 0.00 | 0.40 | 0.40 | 74 | 1021.6 |
| 20260505113601 | 57 | 148 | 9.0 | 21.0 | 0.00 | 0.40 | 0.40 | 75 | 1021.4 |
| 20260505112551 | 56 | 163 | 7.0 | 18.0 | 0.00 | 0.40 | 0.40 | 81 | 1021.6 |
| 20260505111541 | 56 | 125 | 7.0 | 16.0 | 0.00 | 0.40 | 0.40 | 83 | 1021.7 |
| 20260505110531 | 56 | 140 | 6.0 | 13.0 | 0.00 | 0.40 | 0.40 | 83 | 1021.9 |
| 20260505101543 | 56 | 148 | 8.0 | 17.0 | 0.00 | 0.40 | 0.40 | 81 | 1021.8 |
| 20260505100532 | 57 | 141 | 6.0 | 18.0 | 0.00 | 0.40 | 0.40 | 80 | 1021.7 |
| 20260505095522 | 57 | 130 | 3.0 | 16.0 | 0.00 | 0.40 | 0.40 | 81 | 1021.7 |
| 20260505094614 | 56 | 146 | 8.0 | 21.0 | 0.00 | 0.40 | 0.40 | 81 | 1021.6 |
| 20260505093603 | 56 | 145 | 10.0 | 18.0 | 0.00 | 0.40 | 0.40 | 81 | 1021.5 |
| 20260505092553 | 55 | 168 | 10.0 | 18.0 | 0.00 | 0.40 | 0.40 | 83 | 1021.6 |
| 20260505091543 | 56 | 147 | 6.0 | 17.0 | 0.00 | 0.40 | 0.40 | 82 | 1021.7 |
| 20260505090613 | 56 | 147 | 6.0 | 15.0 | 0.00 | 0.40 | 0.40 | 76 | 1021.8 |
| 20260505085523 | 55 | 147 | 10.0 | 19.0 | 0.00 | 0.40 | 0.40 | 78 | 1021.6 |
| 20260505084614 | 54 | 157 | 12.0 | 17.0 | 0.00 | 0.40 | 0.40 | 81 | 1021.7 |
| 20260505083604 | 53 | 153 | 12.0 | 18.0 | 0.00 | 0.40 | 0.40 | 84 | 1021.7 |
| 20260505082614 | 53 | 157 | 7.0 | 17.0 | 0.00 | 0.40 | 0.40 | 86 | 1021.8 |
| 20260505081544 | 54 | 142 | 9.0 | 19.0 | 0.00 | 0.40 | 0.40 | 85 | 1021.7 |
| 20260505080555 | 53 | 168 | 7.0 | 15.0 | 0.00 | 0.40 | 0.40 | 86 | 1021.6 |
| 20260505075524 | 54 | 152 | 10.0 | 18.0 | 0.00 | 0.40 | 0.40 | 83 | 1021.5 |
| 20260505074615 | 53 | 165 | 10.0 | 18.0 | 0.00 | 0.40 | 0.40 | 85 | 1021.6 |
| 20260505073605 | 54 | 145 | 7.0 | 18.0 | 0.00 | 0.40 | 0.40 | 87 | 1021.6 |
| 20260505072555 | 53 | 143 | 7.0 | 15.0 | 0.01 | 0.40 | 0.40 | 88 | 1021.6 |
| 20260505071625 | 53 | 150 | 6.0 | 15.0 | 0.14 | 0.40 | 0.40 | 87 | 1021.6 |
| 20260505070535 | 52 | 145 | 7.0 | 13.0 | 0.18 | 0.40 | 0.40 | 85 | 1021.5 |
| 20260505065546 | 51 | 149 | 4.0 | 11.0 | 0.21 | 0.40 | 0.40 | 85 | 1021.5 |
| 20260505064516 | 50 | 142 | 6.0 | 13.0 | 0.23 | 0.40 | 0.40 | 90 | 1021.7 |
| 20260505063606 | 50 | 166 | 6.0 | 13.0 | 0.25 | 0.40 | 0.40 | 91 | 1021.9 |
| 20260505062556 | 50 | 160 | 9.0 | 16.0 | 0.25 | 0.39 | 0.39 | 92 | 1021.6 |
| 20260505061547 | 51 | 143 | 9.0 | 18.0 | 0.12 | 0.26 | 0.26 | 92 | 1021.6 |
| 20260505060537 | 51 | 175 | 3.0 | 14.0 | 0.08 | 0.22 | 0.22 | 91 | 1021.5 |
| 20260505055526 | 51 | 143 | 5.0 | 17.0 | 0.05 | 0.19 | 0.19 | 90 | 1021.4 |
| 20260505054516 | 51 | 139 | 1.0 | 7.0 | 0.03 | 0.17 | 0.17 | 90 | 1021.6 |
| 20260505053607 | 51 | 146 | 3.0 | 9.0 | 0.02 | 0.15 | 0.15 | 89 | 1021.5 |
| 20260505052557 | 51 | 140 | 8.0 | 14.0 | 0.02 | 0.14 | 0.14 | 89 | 1021.4 |
| 20260505051547 | 51 | 148 | 1.0 | 10.0 | 0.03 | 0.14 | 0.14 | 89 | 1021.3 |
| 20260505050538 | 52 | 178 | 1.0 | 6.0 | 0.03 | 0.14 | 0.14 | 89 | 1021.5 |
| 20260505041548 | 52 | 163 | 0.0 | 7.0 | 0.08 | 0.11 | 0.11 | 86 | 1021.4 |
| 20260505040559 | 52 | 168 | 0.0 | 7.0 | 0.10 | 0.11 | 0.11 | 85 | 1021.3 |
| 20260505035528 | 52 | 136 | 3.0 | 9.0 | 0.09 | 0.09 | 0.09 | 84 | 1021.0 |
| 20260505034518 | 52 | 155 | 4.0 | 9.0 | 0.08 | 0.08 | 0.08 | 84 | 1021.2 |
| 20260505033609 | 52 | 155 | 5.0 | 9.0 | 0.06 | 0.06 | 0.06 | 85 | 1021.2 |
| 20260505032640 | 52 | 150 | 2.0 | 7.0 | 0.05 | 0.05 | 0.05 | 86 | 1021.5 |
| 20260505031610 | 52 | 142 | 3.0 | 7.0 | 0.03 | 0.03 | 0.03 | 84 | 1021.6 |
| 20260505030539 | 53 | 167 | 1.0 | 6.0 | 0.01 | 0.01 | 0.01 | 80 | 1021.5 |
| 20260505025529 | 54 | 143 | 1.0 | 8.0 | 0.00 | 0.00 | 0.00 | 76 | 1021.4 |
| 20260505024520 | 54 | 147 | 0.0 | 4.0 | 0.00 | 0.00 | 0.00 | 77 | 1021.6 |
| 20260505023610 | 55 | 123 | 1.0 | 4.0 | 0.00 | 0.00 | 0.00 | 78 | 1021.4 |
| 20260505022600 | 56 | 134 | 1.0 | 4.0 | 0.00 | 0.00 | 0.00 | 74 | 1021.4 |
| 20260505021610 | 55 | 150 | 5.0 | 9.0 | 0.00 | 0.00 | 0.00 | 76 | 1021.4 |
| 20260505020540 | 55 | 131 | 2.0 | 7.0 | 0.00 | 0.00 | 0.00 | 78 | 1021.5 |
| 20260505015531 | 56 | 113 | 1.0 | 4.0 | 0.00 | 0.00 | 0.00 | 77 | 1021.6 |
| 20260505014521 | 57 | 142 | 2.0 | 7.0 | 0.00 | 0.00 | 0.00 | 75 | 1021.6 |
| 20260505013631 | 57 | 141 | 4.0 | 10.0 | 0.00 | 0.00 | 0.00 | 73 | 1021.7 |
| 20260505012621 | 57 | 157 | 5.0 | 9.0 | 0.00 | 0.00 | 0.00 | 72 | 1021.7 |
| 20260505011551 | 57 | 155 | 5.0 | 8.0 | 0.00 | 0.00 | 0.00 | 70 | 1021.9 |
| 20260505010541 | 58 | 140 | 1.0 | 4.0 | 0.00 | 0.00 | 0.00 | 68 | 1022.0 |
| 20260505005532 | 58 | 139 | 4.0 | 7.0 | 0.00 | 0.00 | 0.00 | 68 | 1022.1 |
| 20260505004521 | 58 | 160 | 4.0 | 8.0 | 0.00 | 0.00 | 0.00 | 69 | 1022.0 |
| 20260505003612 | 57 | 158 | 5.0 | 8.0 | 0.00 | 0.00 | 0.00 | 72 | 1022.0 |
| 20260505002602 | 56 | 142 | 4.0 | 7.0 | 0.00 | 0.00 | 0.00 | 73 | 1022.3 |